Simultaneous Nadir Overpasses (SNOs) Predictions

Prediction of SNOs between METOP-B and TERRA Satellite Orbit:

Table of predicted SNOs for the next 14.0 days since TLE Epoch: 12/28/2024
Index Date (METOP-B) Time (METOP-B) Lat,Lon (METOP-B) SZA (METOP-B ) Date (TERRA) Time (TERRA) Lat,Lon (TERRA) SZA (TERRA ) Distance(km) Time Diff (sec)
1 12/30/2024 12:56:26 -79.12, 176.08 77.69 12/30/2024 12:57:21 -79.13, 176.17 77.68 2.20 55
2 12/30/2024 13:46:59 79.39, -14.66 102.64 12/30/2024 13:46:34 79.40, -14.55 102.64 2.35 25
3 01/02/2025 02:36:17 79.14, 151.22 102.12 01/02/2025 02:37:17 79.14, 151.18 102.12 1.04 60
4 01/02/2025 03:26:50 -79.44, -39.25 77.52 01/02/2025 03:26:30 -79.44, -39.28 77.53 0.82 20
5 01/04/2025 16:16:10 -79.12, 126.06 78.18 01/04/2025 16:17:14 -79.11, 125.99 78.19 1.71 64
6 01/04/2025 17:06:41 79.45, -64.19 102.22 01/04/2025 17:06:25 79.44, -64.32 102.20 2.84 16
7 01/07/2025 05:56:00 79.14, 101.25 101.54 01/07/2025 05:57:07 79.14, 101.14 101.53 2.41 67
8 01/07/2025 06:46:35 -79.38, -89.70 78.19 01/07/2025 06:46:22 -79.38, -89.75 78.20 1.13 13
9 01/09/2025 19:35:56 -78.99, 75.23 79.01 01/09/2025 19:37:05 -79.00, 75.30 79.00 1.75 69



Historial Predications of SNOs between METOP-B and TERRA
